| time (UTC) | temp C | wind direction | speed KPH | gust KPH | rain 1hr cm | rain 24hr cm | rain mn cm | humidity % | barometer mb |
| 20260504050214 | 16 | 162 | 16.1 | 22.5 | 0.00 | 0.00 | 0.00 | 59 | 1008.0 |
| 20260504044714 | 17 | 192 | 16.1 | 22.5 | 0.00 | 0.00 | 0.00 | 57 | 1008.0 |
| 20260504043214 | 17 | 203 | 22.5 | 25.7 | 0.00 | 0.00 | 0.00 | 54 | 1008.0 |
| 20260504041714 | 17 | 138 | 14.5 | 22.5 | 0.00 | 0.00 | 0.00 | 52 | 1008.0 |
| 20260504040214 | 17 | 245 | 17.7 | 19.3 | 0.00 | 0.00 | 0.00 | 54 | 1008.0 |
| 20260504034714 | 17 | 177 | 4.8 | 32.2 | 0.00 | 0.00 | 0.00 | 55 | 1008.0 |
| 20260504033214 | 17 | 201 | 6.4 | 24.1 | 0.00 | 0.00 | 0.00 | 52 | 1008.0 |
| 20260504031714 | 17 | 214 | 11.3 | 29.0 | 0.00 | 0.00 | 0.00 | 55 | 1008.0 |
| 20260504030213 | 17 | 235 | 4.8 | 14.5 | 0.00 | 0.00 | 0.00 | 54 | 1008.3 |
| 20260504024715 | 17 | 41 | 14.5 | 24.1 | 0.00 | 0.00 | 0.00 | 53 | 1008.3 |
| 20260504023214 | 17 | 198 | 4.8 | 22.5 | 0.00 | 0.00 | 0.00 | 54 | 1008.7 |
| 20260504021714 | 16 | 145 | 4.8 | 12.9 | 0.00 | 0.00 | 0.00 | 60 | 1008.7 |
| 20260504020214 | 16 | 156 | 6.4 | 22.5 | 0.00 | 0.00 | 0.00 | 60 | 1009.0 |
| 20260504014715 | 16 | 251 | 12.9 | 24.1 | 0.00 | 0.00 | 0.00 | 60 | 1009.0 |
| 20260504013213 | 16 | 175 | 6.4 | 22.5 | 0.00 | 0.00 | 0.00 | 61 | 1009.3 |
| 20260504011714 | 16 | 146 | 16.1 | 19.3 | 0.00 | 0.00 | 0.00 | 61 | 1009.3 |
| 20260504010214 | 16 | 102 | 3.2 | 12.9 | 0.00 | 0.00 | 0.00 | 64 | 1009.3 |
| 20260504004714 | 16 | 250 | 9.7 | 14.5 | 0.00 | 0.00 | 0.00 | 63 | 1009.3 |
| 20260504003215 | 16 | 175 | 16.1 | 27.4 | 0.00 | 0.00 | 0.00 | 63 | 1009.3 |
| 20260504001714 | 16 | 248 | 9.7 | 16.1 | 0.00 | 0.00 | 0.00 | 64 | 1009.3 |
| 20260504000214 | 16 | 174 | 16.1 | 22.5 | 0.00 | 0.00 | 0.00 | 64 | 1009.3 |
| 20260503234714 | 16 | 277 | 9.7 | 12.9 | 0.00 | 0.00 | 0.00 | 64 | 1009.7 |
| 20260503233215 | 16 | 191 | 12.9 | 22.5 | 0.00 | 0.00 | 0.00 | 65 | 1009.7 |
| 20260503231714 | 16 | 167 | 11.3 | 19.3 | 0.00 | 0.00 | 0.00 | 65 | 1009.7 |
| 20260503230214 | 15 | 158 | 4.8 | 14.5 | 0.00 | 0.00 | 0.00 | 67 | 1009.7 |
| 20260503224714 | 15 | 200 | 11.3 | 17.7 | 0.00 | 0.00 | 0.00 | 67 | 1010.0 |
| 20260503223214 | 15 | 199 | 6.4 | 12.9 | 0.00 | 0.00 | 0.00 | 69 | 1009.7 |
| 20260503221714 | 14 | 171 | 3.2 | 14.5 | 0.00 | 0.00 | 0.00 | 70 | 1009.7 |
| 20260503220214 | 13 | 243 | 1.6 | 16.1 | 0.00 | 0.00 | 0.00 | 73 | 1009.7 |
| 20260503214714 | 13 | 212 | 6.4 | 11.3 | 0.00 | 0.00 | 0.00 | 74 | 1009.7 |
| 20260503213214 | 12 | 192 | 3.2 | 4.8 | 0.00 | 0.00 | 0.00 | 78 | 1009.7 |
| 20260503211713 | 12 | 243 | 8.0 | 12.9 | 0.00 | 0.00 | 0.00 | 78 | 1009.7 |
| 20260503210213 | 13 | 205 | 3.2 | 9.7 | 0.00 | 0.00 | 0.00 | 77 | 1009.7 |
| 20260503204714 | 12 | 235 | 4.8 | 12.9 | 0.00 | 0.00 | 0.00 | 78 | 1009.7 |
| 20260503203214 | 12 | 179 | 3.2 | 3.2 | 0.00 | 0.00 | 0.00 | 80 | 1009.3 |
| 20260503201714 | 12 | 189 | 6.4 | 9.7 | 0.00 | 0.00 | 0.00 | 81 | 1009.3 |
| 20260503200214 | 12 | 208 | 0.0 | 4.8 | 0.00 | 0.00 | 0.00 | 81 | 1009.3 |
| 20260503194715 | 12 | 213 | 1.6 | 6.4 | 0.00 | 0.00 | 0.00 | 80 | 1009.7 |
| 20260503193214 | 12 | 206 | 1.6 | 4.8 | 0.00 | 0.00 | 0.00 | 81 | 1009.3 |
| 20260503191714 | 12 | 175 | 1.6 | 4.8 | 0.00 | 0.00 | 0.00 | 82 | 1009.3 |
| 20260503190214 | 12 | 234 | 3.2 | 4.8 | 0.00 | 0.00 | 0.00 | 82 | 1009.7 |
| 20260503184714 | 12 | 260 | 3.2 | 4.8 | 0.00 | 0.00 | 0.00 | 82 | 1010.0 |
| 20260503183214 | 12 | 175 | 3.2 | 6.4 | 0.00 | 0.00 | 0.00 | 83 | 1010.0 |
| 20260503181714 | 12 | 217 | 3.2 | 3.2 | 0.00 | 0.00 | 0.00 | 84 | 1010.0 |
| 20260503180214 | 12 | 196 | 0.0 | 1.6 | 0.00 | 0.00 | 0.00 | 84 | 1010.0 |
| 20260503174714 | 11 | 218 | 1.6 | 4.8 | 0.00 | 0.00 | 0.00 | 87 | 1010.4 |
| 20260503173214 | 11 | 236 | 0.0 | 0.0 | 0.00 | 0.00 | 0.00 | 88 | 1010.4 |
| 20260503171714 | 11 | 217 | 0.0 | 0.0 | 0.00 | 0.00 | 0.00 | 88 | 1010.4 |
| 20260503170214 | 11 | 201 | 0.0 | 4.8 | 0.00 | 0.00 | 0.00 | 87 | 1010.4 |
| 20260503160214 | 11 | 217 | 1.6 | 1.6 | 0.00 | 0.00 | 0.00 | 88 | 1010.7 |
| 20260503150214 | 11 | 211 | 0.0 | 1.6 | 0.00 | 0.00 | 0.00 | 89 | 1010.7 |
| 20260503140214 | 13 | 167 | 3.2 | 4.8 | 0.00 | 0.00 | 0.00 | 82 | 1011.0 |
| 20260503130214 | 13 | 163 | 1.6 | 3.2 | 0.00 | 0.00 | 1.55 | 81 | 1011.4 |
| 20260503120214 | 13 | 163 | 0.0 | 3.2 | 0.00 | 0.00 | 1.55 | 80 | 1011.0 |
| 20260503110214 | 13 | 211 | 1.6 | 3.2 | 0.00 | 0.00 | 1.55 | 77 | 1011.0 |
| 20260503100214 | 14 | 143 | 0.0 | 3.2 | 0.00 | 0.00 | 1.55 | 76 | 1011.4 |
| 20260503090215 | 13 | 179 | 1.6 | 9.7 | 0.00 | 0.00 | 1.55 | 79 | 1011.0 |
| 20260503080214 | 15 | 204 | 0.0 | 3.2 | 0.00 | 0.00 | 1.55 | 77 | 1009.7 |
| 20260503071714 | 16 | 130 | 3.2 | 6.4 | 0.00 | 0.00 | 1.55 | 78 | 1009.3 |
| 20260503070214 | 17 | 207 | 4.8 | 6.4 | 0.00 | 0.00 | 1.55 | 78 | 1009.0 |
| 20260503060214 | 16 | 216 | 8.0 | 14.5 | 0.05 | 0.00 | 1.55 | 84 | 1008.7 |
| 20260503054714 | 16 | 258 | 3.2 | 9.7 | 0.08 | 0.00 | 1.55 | 85 | 1009.0 |
| 20260503053214 | 16 | 96 | 3.2 | 11.3 | 0.08 | 0.00 | 1.55 | 87 | 1009.0 |